Location: Krasnoyarskiy Pitomnik
(51.1333°N, 71.6167°E)
Time: 10:18:37
(UTC+00:00)

FENGYUN 3A - Pass Details

Date: 22 October 2021
Orbit: 824 x 835 km, 98.5° (Epoch: 06 December)

Event Time Altitude Azimuth Distance (km) Brightness Sun altitude
Rises 22:50:04 0° 17° (NNE) 3,392 7.3 -28.6°
Reaches altitude 10° 22:52:29 10° 21° (NNE) 2,456 6.6 -28.3°
Maximum altitude 22:57:51 58° 101° (E) 974 4.2 -27.5°
Enters shadow 23:00:49 26° 170° (S) 1,584 5.0 -27.0°
